Weather History for KJDD - September, 2013

Change the Weather History Date:

Friday, September 13, 2013

  Actual Average (KTYR) Record (KTYR)
Temperature  
Mean Temperature 84 °F 77 °F  
Max Temperature 96 °F 87 °F 106 °F (2011)
Min Temperature 73 °F 67 °F 45 °F (1960)
Degree Days  
Heating Degree Days 0 0  
Month to date heating degree days 0  
Since 1 July heating degree days 0  
Cooling Degree Days 20 12  
Month to date cooling degree days 181  
Year to date cooling degree days 2103  
Growing Degree Days 34 (Base 50)    
Moisture  
Dew Point 68 °F    
Average Humidity 60    
Maximum Humidity 89    
Minimum Humidity 34    
Precipitation  
Precipitation 0.00 in 0.12 in 9.07 in (1913)
Month to date precipitation 1.57  
Year to date precipitation 30.83  
Snow  
Snow 0.00 in - - ()
Month to date snowfall  
Since 1 July snowfall  
Since 1 September snowfall  
Snow Depth -    
Sea Level Pressure  
Sea Level Pressure 29.93 in    
Wind  
Wind Speed 1 mph (ENE)    
Max Wind Speed 10 mph    
Max Gust Speed -    
Visibility 9 miles    
Events      
T = Trace of Precipitation, MM = Missing Value Source: NWS Daily Summary

Daily Weather History Graph

Daily Weather History Graph

Search for Another Location

Airport or City:

Trip Planner

Search our weather history database for the weather conditions in past years. The results will help you decide how hot, cold, wet, or windy it might be!

Date:

Astronomy

Sep. 13, 2013 Rise Set
Actual Time 7:04 AM CDT 7:30 PM CDT
Civil Twilight 6:39 AM CDT 7:55 PM CDT
Nautical Twilight 6:10 AM CDT 8:24 PM CDT
Astronomical Twilight 5:41 AM CDT 8:53 PM CDT
Moon 3:07 PM CDT (9/13) 12:49 AM CDT (9/13)
Length of Visible Light 13h 15m
Length of Day
12h 25m
First Quarter, 61% of the Moon is Illuminated
Sep 13
First Quarter
Sep 19
Full
Sep 26
Last Quarter
Oct 4
New
Oct 11
First Quarter

Hourly Weather History & Observations

Time (CDT) Temp. Heat Index Dew Point Humidity Pressure Visibility Wind Dir Wind Speed Gust Speed Precip Events Conditions
12:15 AM 80.6 °F 83.9 °F 69.8 °F 70% 29.98 in 10.0 mi Calm Calm - N/A   Mostly Cloudy
12:35 AM 78.8 °F - 69.8 °F 74% 29.98 in 9.0 mi Calm Calm - N/A   Scattered Clouds
12:55 AM 78.8 °F - 69.8 °F 74% 29.98 in 9.0 mi Calm Calm - N/A   Scattered Clouds
1:15 AM 77.0 °F - 69.8 °F 78% 29.98 in 9.0 mi Calm Calm - N/A   Clear
1:35 AM 77.0 °F - 69.8 °F 78% 29.97 in 9.0 mi Calm Calm - N/A   Clear
1:55 AM 75.2 °F - 69.8 °F 83% 29.97 in 8.0 mi Calm Calm - N/A   Scattered Clouds
2:15 AM 75.2 °F - 69.8 °F 83% 29.97 in 9.0 mi Calm Calm - N/A   Partly Cloudy
2:35 AM 75.2 °F - 69.8 °F 83% 29.97 in 8.0 mi Calm Calm - N/A   Clear
2:55 AM 73.4 °F - 69.8 °F 88% 29.97 in 7.0 mi Calm Calm - N/A   Clear
3:15 AM 73.4 °F - 69.8 °F 88% 29.96 in 8.0 mi Calm Calm - N/A   Clear
3:35 AM 75.2 °F - 69.8 °F 83% 29.96 in 9.0 mi Calm Calm - N/A   Partly Cloudy
3:55 AM 77.0 °F - 69.8 °F 78% 29.96 in 9.0 mi Calm Calm - N/A   Partly Cloudy
4:15 AM 77.0 °F - 69.8 °F 78% 29.95 in 9.0 mi Calm Calm - N/A   Partly Cloudy
4:35 AM 77.0 °F - 69.8 °F 78% 29.95 in 9.0 mi Calm Calm - N/A   Scattered Clouds
4:55 AM 77.0 °F - 69.8 °F 78% 29.95 in 10.0 mi Calm Calm - N/A   Scattered Clouds
5:15 AM 77.0 °F - 69.8 °F 78% 29.95 in 9.0 mi Calm Calm - N/A   Clear
5:35 AM 75.2 °F - 69.8 °F 83% 29.96 in 9.0 mi Calm Calm - N/A   Partly Cloudy
5:55 AM 75.2 °F - 69.8 °F 83% 29.96 in 9.0 mi Calm Calm - N/A   Clear
6:15 AM 75.2 °F - 69.8 °F 83% 29.96 in 8.0 mi Calm Calm - N/A   Clear
6:35 AM 73.4 °F - 69.8 °F 88% 29.97 in 7.0 mi Calm Calm - N/A   Clear
6:55 AM 73.4 °F - 69.8 °F 88% 29.97 in 7.0 mi Calm Calm - N/A   Clear
7:15 AM 73.4 °F - 69.8 °F 88% 29.97 in 5.0 mi Calm Calm - N/A   Partly Cloudy
7:35 AM 73.4 °F - 69.8 °F 88% 29.97 in 5.0 mi Calm Calm - N/A   Mostly Cloudy
7:55 AM 75.2 °F - 71.6 °F 89% 29.98 in 5.0 mi Calm Calm - N/A   Partly Cloudy
8:15 AM 77.0 °F - 71.6 °F 83% 29.99 in 5.0 mi Calm Calm - N/A   Haze
8:35 AM 78.8 °F - 71.6 °F 78% 29.99 in 7.0 mi Calm Calm - N/A   Clear
8:55 AM 80.6 °F 84.6 °F 71.6 °F 74% 29.99 in 7.0 mi Calm Calm - N/A   Clear
9:15 AM 80.6 °F 84.6 °F 71.6 °F 74% 29.99 in 7.0 mi Calm Calm - N/A   Clear
9:35 AM 82.4 °F 87.2 °F 71.6 °F 70% 29.99 in 7.0 mi Calm Calm - N/A   Clear
9:55 AM 84.2 °F 88.4 °F 69.8 °F 62% 29.99 in 7.0 mi East 3.5 mph - N/A   Clear
10:15 AM 84.2 °F 88.4 °F 69.8 °F 62% 29.99 in 9.0 mi ESE 4.6 mph - N/A   Clear
10:35 AM 84.2 °F 88.4 °F 69.8 °F 62% 29.99 in 8.0 mi Calm Calm - N/A   Clear
10:55 AM 86.0 °F 90.4 °F 69.8 °F 58% 29.99 in 8.0 mi Calm Calm - N/A   Clear
11:15 AM 89.6 °F 94.7 °F 69.8 °F 52% 29.98 in 8.0 mi ENE 3.5 mph - N/A   Clear
11:35 AM 89.6 °F 94.7 °F 69.8 °F 52% 29.98 in 9.0 mi Calm Calm - N/A   Clear
11:55 AM 89.6 °F 94.7 °F 69.8 °F 52% 29.97 in 8.0 mi Calm Calm - N/A   Partly Cloudy
12:15 PM 91.4 °F 96.8 °F 69.8 °F 49% 29.97 in 8.0 mi North 4.6 mph - N/A   Partly Cloudy
12:35 PM 91.4 °F 95.4 °F 68.0 °F 46% 29.96 in 9.0 mi NNE 4.6 mph - N/A   Scattered Clouds
12:55 PM 91.4 °F 95.4 °F 68.0 °F 46% 29.96 in 8.0 mi Calm Calm - N/A   Partly Cloudy
1:15 PM 93.2 °F 97.7 °F 68.0 °F 44% 29.94 in 8.0 mi North 4.6 mph - N/A   Scattered Clouds
1:35 PM 93.2 °F 96.2 °F 66.2 °F 41% 29.93 in 9.0 mi ENE 4.6 mph - N/A   Partly Cloudy
1:55 PM 93.2 °F 96.2 °F 66.2 °F 41% 29.92 in 10.0 mi Calm Calm - N/A   Scattered Clouds
2:15 PM 93.2 °F 96.2 °F 66.2 °F 41% 29.91 in 8.0 mi Calm Calm - N/A   Partly Cloudy
2:35 PM 95.0 °F 97.0 °F 64.4 °F 36% 29.90 in 9.0 mi East 3.5 mph - N/A   Scattered Clouds
2:55 PM 93.2 °F 96.2 °F 66.2 °F 41% 29.90 in 9.0 mi Calm Calm - N/A   Scattered Clouds
3:15 PM 95.0 °F 98.5 °F 66.2 °F 39% 29.88 in 9.0 mi NNE 10.4 mph - N/A   Scattered Clouds
3:35 PM 95.0 °F 97.0 °F 64.4 °F 36% 29.87 in 9.0 mi NE 4.6 mph - N/A   Scattered Clouds
3:55 PM 96.8 °F 99.0 °F 64.4 °F 34% 29.87 in 9.0 mi East 3.5 mph - N/A   Scattered Clouds
4:15 PM 93.2 °F 94.9 °F 64.4 °F 38% 29.86 in 10.0 mi Calm Calm - N/A   Partly Cloudy
4:35 PM 96.8 °F 99.0 °F 64.4 °F 34% 29.85 in 8.0 mi NNE 8.1 mph - N/A   Partly Cloudy
4:55 PM 96.8 °F 99.0 °F 64.4 °F 34% 29.85 in 8.0 mi NNE 3.5 mph - N/A   Clear
5:15 PM 95.0 °F 97.0 °F 64.4 °F 36% 29.85 in 8.0 mi NE 4.6 mph - N/A   Clear
5:35 PM 95.0 °F 96.0 °F 62.6 °F 34% 29.85 in 9.0 mi East 4.6 mph - N/A   Clear
5:55 PM 95.0 °F 96.0 °F 62.6 °F 34% 29.85 in 9.0 mi SSE 5.8 mph - N/A   Clear
6:15 PM 95.0 °F 96.0 °F 62.6 °F 34% 29.85 in 9.0 mi Calm Calm - N/A   Scattered Clouds
6:35 PM 93.2 °F 94.1 °F 62.6 °F 36% 29.85 in 9.0 mi NE 4.6 mph - N/A   Mostly Cloudy
6:55 PM 93.2 °F 94.9 °F 64.4 °F 38% 29.86 in 9.0 mi ENE 4.6 mph - N/A   Scattered Clouds
7:15 PM 91.4 °F 93.2 °F 64.4 °F 41% 29.86 in 9.0 mi NE 4.6 mph - N/A   Scattered Clouds
7:35 PM 89.6 °F 91.1 °F 64.4 °F 43% 29.86 in 9.0 mi NE 3.5 mph - N/A   Mostly Cloudy
7:55 PM 89.6 °F 91.1 °F 64.4 °F 43% 29.87 in 10.0 mi Calm Calm - N/A   Partly Cloudy
8:15 PM 89.6 °F 92.2 °F 66.2 °F 46% 29.87 in 10.0 mi Calm Calm - N/A   Clear
8:35 PM 87.8 °F 90.4 °F 66.2 °F 49% 29.89 in 10.0 mi Calm Calm - N/A   Clear
8:55 PM 87.8 °F 90.4 °F 66.2 °F 49% 29.90 in 10.0 mi ENE 3.5 mph - N/A   Clear
9:15 PM 86.0 °F 88.2 °F 66.2 °F 51% 29.91 in 10.0 mi Calm Calm - N/A   Clear
9:35 PM 86.0 °F 88.2 °F 66.2 °F 51% 29.92 in 10.0 mi NE 4.6 mph - N/A   Clear
9:55 PM 84.2 °F 86.6 °F 66.2 °F 55% 29.92 in 10.0 mi Calm Calm - N/A   Partly Cloudy
10:15 PM 84.2 °F 86.6 °F 66.2 °F 55% 29.93 in 10.0 mi ENE 4.6 mph - N/A   Clear
10:35 PM 84.2 °F 86.6 °F 66.2 °F 55% 29.93 in 10.0 mi Calm Calm - N/A   Clear
10:55 PM 82.4 °F 84.6 °F 66.2 °F 58% 29.93 in 10.0 mi ENE 3.5 mph - N/A   Clear
11:15 PM 82.4 °F 84.6 °F 66.2 °F 58% 29.93 in 10.0 mi ENE 3.5 mph - N/A   Clear
11:35 PM 82.4 °F 83.9 °F 64.4 °F 54% 29.93 in 10.0 mi ENE 3.5 mph - N/A   Clear
11:55 PM 82.4 °F 83.9 °F 64.4 °F 54% 29.94 in 10.0 mi Calm Calm - N/A   Mostly Cloudy